Sierra Vista, AZ

5:14 AM MST on January 23, 2018 (GMT -0700)
Sierra Vista Municipal-Libby Army Air Field

Weather History for KFHU - April, 2014

Change the Weather History Date:

Thursday, April 17, 2014

  Actual Average Record
Temperature  
Mean Temperature 66 °F -  
Max Temperature 80 °F 73 °F 89 °F (1987)
Min Temperature 51 °F 51 °F 34 °F (1988)
Growing Degree Days 16 (Base 50)    
Moisture  
Dew Point 17 °F    
Average Humidity 15    
Maximum Humidity 30    
Minimum Humidity 7    
Precipitation  
Precipitation 0.00 in - - ()
Sea Level Pressure  
Sea Level Pressure 29.88 in    
Wind  
Wind Speed 6 mph (SSE)    
Max Wind Speed 12 mph    
Max Gust Speed 20 mph    
Visibility 10 miles    
Events      
Averages and records for this station are not official NWS values.
T = Trace of Precipitation, MM = Missing Value Source: NWS Daily Summary

Daily Weather History Graph

Daily Weather History Graph

Search for Another Location

Airport or City:

Trip Planner

Search our weather history database for the weather conditions in past years. The results will help you decide how hot, cold, wet, or windy it might be!

Date:

Astronomy

Apr. 17, 2014 Rise Set
Actual Time 5:50 AM MST 6:51 PM MST
Civil Twilight 5:25 AM MST 7:16 PM MST
Nautical Twilight 4:55 AM MST 7:46 PM MST
Astronomical Twilight 4:25 AM MST 8:17 PM MST
Moon 9:33 PM MST (4/17) 7:31 AM MST (4/17)
Length of Visible Light 13h 51m
Length of Day
13h 01m
Waning Gibbous, 93% of the Moon is Illuminated
Apr 17
Waning Gibbous
Apr 22
Last Quarter
Apr 28
New
May 6
First Quarter
May 14
Full

Hourly Weather History & Observations

Time (MST) Temp. Dew Point Humidity Pressure Visibility Wind Dir Wind Speed Gust Speed Precip Events Conditions
12:55 AM 62.6 °F 15.8 °F 16% 29.83 in 10.0 mi WSW 10.4 mph 17.3 mph N/A   Clear
1:55 AM 60.8 °F 15.8 °F 17% 29.83 in 10.0 mi Variable 4.6 mph - N/A   Clear
2:55 AM 55.4 °F 17.6 °F 23% 29.84 in 10.0 mi NE 4.6 mph - N/A   Clear
3:55 AM 53.6 °F 17.6 °F 24% 29.86 in 10.0 mi ENE 3.5 mph - N/A   Clear
4:55 AM 51.8 °F 19.4 °F 28% 29.88 in 10.0 mi West 3.5 mph - N/A   Clear
5:55 AM 53.6 °F 23.0 °F 30% 29.90 in 10.0 mi WSW 5.8 mph - N/A   Clear
6:55 AM 59.0 °F 21.2 °F 23% 29.92 in 10.0 mi Calm Calm - N/A   Clear
7:55 AM 62.6 °F 21.2 °F 20% 29.93 in 10.0 mi North 3.5 mph - N/A   Clear
8:55 AM 66.2 °F 21.2 °F 18% 29.93 in 10.0 mi Calm Calm - N/A   Clear
9:55 AM 71.6 °F 19.4 °F 14% 29.93 in 10.0 mi SE 5.8 mph - N/A   Clear
10:55 AM 75.2 °F 17.6 °F 11% 29.93 in 10.0 mi ESE 6.9 mph - N/A   Clear
11:55 AM 78.8 °F 17.6 °F 10% 29.91 in 10.0 mi SE 11.5 mph 16.1 mph N/A   Clear
12:55 PM 78.8 °F 17.6 °F 10% 29.88 in 10.0 mi ESE 9.2 mph 19.6 mph N/A   Clear
1:55 PM 78.8 °F 14.0 °F 9% 29.87 in 10.0 mi East 6.9 mph - N/A   Partly Cloudy
2:55 PM 80.6 °F 12.2 °F 8% 29.86 in 10.0 mi East 6.9 mph - N/A   Partly Cloudy
3:55 PM 80.6 °F 12.2 °F 8% 29.84 in 10.0 mi East 8.1 mph 16.1 mph N/A   Scattered Clouds
4:55 PM 80.6 °F 10.4 °F 7% 29.85 in 10.0 mi Calm Calm - N/A   Mostly Cloudy
5:55 PM 78.8 °F 12.2 °F 8% 29.84 in 10.0 mi ESE 6.9 mph - N/A   Mostly Cloudy
6:55 PM 73.4 °F 15.8 °F 11% 29.85 in 10.0 mi SSE 8.1 mph - N/A   Overcast
7:55 PM 71.6 °F 15.8 °F 12% 29.86 in 10.0 mi SW 5.8 mph - N/A   Mostly Cloudy
8:55 PM 69.8 °F 19.4 °F 15% 29.88 in 10.0 mi West 11.5 mph - N/A   Mostly Cloudy
9:55 PM 69.8 °F 19.4 °F 15% 29.87 in 10.0 mi West 11.5 mph - N/A   Overcast
10:55 PM 69.8 °F 21.2 °F 16% 29.87 in 10.0 mi West 10.4 mph - N/A   Overcast
11:55 PM 66.2 °F 21.2 °F 18% 29.87 in 10.0 mi South 10.4 mph - N/A   Overcast